TimeEDT,TemperatureF,Dew PointF,Humidity,Sea Level PressureIn,VisibilityMPH,Wind Direction,Wind SpeedMPH,Gust SpeedMPH,PrecipitationIn,Events,Conditions,WindDirDegrees,DateUTC
12:52 AM,24.1,14.0,65,30.22,10.0,NW,10.4,-,N/A,,Clear,310,2014-03-26 04:52:00
1:52 AM,24.1,12.9,62,30.24,10.0,WNW,10.4,-,N/A,,Overcast,300,2014-03-26 05:52:00
2:52 AM,24.1,12.0,60,30.25,10.0,NNW,8.1,-,N/A,,Overcast,340,2014-03-26 06:52:00
3:52 AM,24.1,16.0,71,30.25,10.0,NNW,8.1,-,0.00,,Overcast,330,2014-03-26 07:52:00
4:52 AM,21.0,15.1,78,30.27,10.0,North,5.8,-,N/A,,Partly Cloudy,360,2014-03-26 08:52:00
5:52 AM,21.0,12.0,68,30.29,10.0,NNE,4.6,-,N/A,,Clear,30,2014-03-26 09:52:00
6:52 AM,21.9,10.0,60,30.30,10.0,North,3.5,-,N/A,,Clear,10,2014-03-26 10:52:00
7:52 AM,18.0,10.9,74,30.33,8.0,Calm,Calm,-,N/A,,Clear,0,2014-03-26 11:52:00
8:52 AM,23.0,12.9,65,30.36,10.0,Calm,Calm,-,N/A,,Clear,0,2014-03-26 12:52:00
9:52 AM,27.0,10.0,49,30.38,10.0,Calm,Calm,-,N/A,,Partly Cloudy,0,2014-03-26 13:52:00
10:52 AM,28.0,10.0,47,30.40,10.0,ENE,4.6,-,N/A,,Scattered Clouds,70,2014-03-26 14:52:00
11:52 AM,30.0,9.0,41,30.39,10.0,Calm,Calm,-,N/A,,Partly Cloudy,0,2014-03-26 15:52:00
12:52 PM,33.1,9.0,37,30.39,10.0,WNW,5.8,-,N/A,,Partly Cloudy,290,2014-03-26 16:52:00
1:52 PM,35.1,8.1,33,30.35,10.0,Variable,3.5,-,N/A,,Clear,0,2014-03-26 17:52:00
2:52 PM,37.0,8.1,30,30.33,10.0,WSW,5.8,-,N/A,,Clear,250,2014-03-26 18:52:00
3:52 PM,39.0,9.0,29,30.29,10.0,East,8.1,-,N/A,,Partly Cloudy,80,2014-03-26 19:52:00
4:52 PM,39.9,10.0,29,30.29,10.0,SW,8.1,-,N/A,,Partly Cloudy,220,2014-03-26 20:52:00
5:52 PM,39.0,8.1,28,30.26,10.0,South,8.1,-,N/A,,Clear,180,2014-03-26 21:52:00
6:52 PM,39.9,8.1,27,30.25,10.0,South,8.1,-,N/A,,Clear,190,2014-03-26 22:52:00
7:52 PM,36.0,10.0,34,30.25,10.0,SSW,5.8,-,N/A,,Partly Cloudy,200,2014-03-26 23:52:00
8:52 PM,36.0,10.0,34,30.26,10.0,SW,3.5,-,N/A,,Partly Cloudy,220,2014-03-27 00:52:00
9:52 PM,30.9,14.0,50,30.26,10.0,South,5.8,-,N/A,,Partly Cloudy,180,2014-03-27 01:52:00
10:52 PM,30.9,15.1,52,30.26,10.0,South,5.8,-,N/A,,Partly Cloudy,170,2014-03-27 02:52:00
11:52 PM,30.0,15.1,54,30.26,10.0,South,6.9,-,N/A,,Scattered Clouds,170,2014-03-27 03:52:00